Location: Coatesville
(39.9830°N, 75.8240°W)
Time: 11:02:30
(UTC-05:00)

N. Korean satellite - Visible Passes

Search period start: 22 November 2019 00:00
Search period end: 02 December 2019 00:00
Orbit: 456 x 506 km, 97.2° (Epoch: 21 November)

Date Brightness Start Highest point End Pass type
(mag) Time Alt. Az. Time Alt. Az. Time Alt. Az.
22 Nov 6.6 06:10:54 10° N 06:14:33 59° WNW 06:18:06 10° SSW visible
22 Nov 10.2 18:21:10 10° WSW 18:22:26 11° W 18:23:41 10° WNW visible
23 Nov 7.2 05:45:31 10° NNE 05:49:10 61° E 05:52:44 10° S visible
23 Nov 9.3 17:53:52 10° SSW 17:56:50 23° W 17:59:51 10° NW visible
24 Nov 8.9 05:20:31 10° NE 05:23:42 27° E 05:26:49 10° SSE visible
24 Nov 7.7 17:27:47 10° S 17:31:20 49° W 17:34:58 10° NNW visible
25 Nov 10.0 04:56:14 10° ENE 04:58:07 14° E 04:59:59 10° ESE visible
26 Nov 6.5 06:02:39 10° N 06:06:20 76° WNW 06:09:54 10° SSW visible
26 Nov 10.0 18:12:02 10° SW 18:14:08 15° W 18:16:14 10° WNW visible
27 Nov 7.7 05:37:22 10° NNE 05:40:55 46° E 05:44:22 10° S visible
27 Nov 8.9 17:45:19 10° SSW 17:48:33 29° W 17:51:51 10° NW visible
28 Nov 9.3 05:12:31 10° NE 05:15:23 22° E 05:18:12 10° SSE visible
28 Nov 7.2 17:19:26 10° S 17:23:05 64° W 17:26:48 10° NNW visible
29 Nov 10.2 04:49:03 10° ENE 04:49:46 10° E 04:50:30 10° ESE visible
29 Nov 6.9 06:19:57 10° N 06:23:25 43° WNW 06:26:48 10° SW visible
30 Nov 6.6 05:54:25 10° NNE 05:58:03 83° ESE 06:01:36 10° S visible
30 Nov 9.7 18:03:11 10° SW 18:05:48 18° W 18:08:25 10° NW visible
01 Dec 8.3 05:29:14 10° NNE 05:32:36 35° E 05:35:52 10° SSE visible
01 Dec 8.4 17:36:48 10° SSW 17:40:15 37° W 17:43:44 10° NNW visible
